This is the latest recevied weather packets stored in our database for station/object IZ3LSV-13. If no packets are shown the sender has not sent any weather packets the latest 1 day(s).
| Time | Temp. | Humidity | Pressure | Rain* | Wind** | Luminosity | Snow |
|---|---|---|---|---|---|---|---|
| 1778067768 | 26.11° C | - | 1105.8 hPa | 0 mm | - | - | - |
| 1778067157 | 26.11° C | - | 1105.9 hPa | 0 mm | - | - | - |
| 1778066852 | 25.56° C | - | 1105.8 hPa | 0 mm | - | - | - |
| 1778066241 | 25.56° C | - | 1105.8 hPa | 0 mm | - | - | - |
| 1778065630 | 25.56° C | - | 1105.8 hPa | 0 mm | - | - | - |
| 1778065325 | 25.56° C | - | 1105.9 hPa | 0 mm | - | - | - |
| 1778064714 | 25.56° C | - | 1106 hPa | 0 mm | - | - | - |
| 1778064103 | 25° C | - | 1106.1 hPa | 0 mm | - | - | - |
| 1778063187 | 23.89° C | - | 1106.3 hPa | 0 mm | - | - | - |
| 1778062576 | 24.44° C | - | 1106.5 hPa | 0 mm | - | - | - |
| 1778061965 | 24.44° C | - | 1106.6 hPa | 0 mm | - | - | - |
| 1778061660 | 24.44° C | - | 1106.5 hPa | 0 mm | - | - | - |
| 1778061354 | 24.44° C | - | 1106.5 hPa | 0 mm | - | - | - |
| 1778061049 | 24.44° C | - | 1106.5 hPa | 0 mm | - | - | - |
| 1778060438 | 25° C | - | 1106.5 hPa | 0 mm | - | - | - |
| 1778060133 | 25° C | - | 1106.4 hPa | 0 mm | - | - | - |
| 1778059522 | 25° C | - | 1106.4 hPa | 0 mm | - | - | - |
| 1778058911 | 25° C | - | 1106.4 hPa | 0 mm | - | - | - |
| 1778058300 | 25° C | - | 1106.1 hPa | 0 mm | - | - | - |
| 1778057995 | 25° C | - | 1106.1 hPa | 0 mm | - | - | - |
| 1778057689 | 25° C | - | 1106.2 hPa | 0 mm | - | - | - |
| 1778057384 | 25° C | - | 1106 hPa | 0 mm | - | - | - |
| 1778056773 | 25° C | - | 1106 hPa | 0 mm | - | - | - |
| 1778056162 | 25° C | - | 1105.9 hPa | 0 mm | - | - | - |
| 1778055857 | 25° C | - | 1105.9 hPa | 0 mm | - | - | - |
* Rain latest hour (hover to see other rain measurements)
** Current wind speed in m/s (hover to see current wind gust speed)